Regional Weather Roundup
Issued by NWS Boston, MA

Current Version | Previous Version | Text Only | Print | Product List | Glossary Off
Versions: 1 2 3 4 5 6 7 8 9 10 11 12 13 14 15 16 17 18 19 20 21 22 23 24 25 26 27 28
000 ASUS41 KBOX 281310 RWRBOX REGIONAL WEATHER ROUNDUP NATIONAL WEATHER SERVICE TAUNTON MA 900 AM EDT WED JUN 28 2017 NOTE: "FAIR" INDICATES FEW OR NO CLOUDS BELOW 12,000 FEET WITH NO SIGNIFICANT WEATHER AND/OR OBSTRUCTIONS TO VISIBILITY. MAZALL-281400- EASTERN MASSACHUSETTS CITY SKY/WX TMP DP RH WIND PRES REMARKS BOSTON SUNNY 66 53 63 W13 30.02R BEVERLY SUNNY 64 56 75 W10 30.00S LAWRENCE SUNNY 65 54 67 W12 30.04R BEDFORD SUNNY 64 53 67 MISG 30.02R BLUE HILL N/A 62 53 72 MISG 30.02R NORWOOD SUNNY 65 56 72 W14 30.02S MARSHFIELD SUNNY 66 54 63 NW9G17 30.02R PLYMOUTH SUNNY 66 51 58 W12 30.03R TAUNTON SUNNY 67 50 54 W10G17 30.03R NEW BEDFORD SUNNY 68 53 58 NW12G17 30.02S $$ MAZALL-281400- CAPE COD AND THE ISLANDS CITY SKY/WX TMP DP RH WIND PRES REMARKS FALMOUTH SUNNY 66 52 59 NW12G20 30.04S HYANNIS SUNNY 68 51 54 W12 30.01S CHATHAM SUNNY 68 53 58 W10G17 30.03R PROVINCETOWN SUNNY 64 55 72 W13 30.02S NANTUCKET SUNNY 68 55 63 NW15 30.03R MARTHAS VNYRD SUNNY 68 54 60 VRB7G18 30.04R $$ MAZALL-281400- CENTRAL AND WESTERN MASSACHUSETTS CITY SKY/WX TMP DP RH WIND PRES REMARKS WORCESTER SUNNY 60 51 72 W15 30.05S FITCHBURG SUNNY 66 52 60 NW16G23 30.04R ORANGE SUNNY 61 54 77 W6 30.06R SPRINGFIELD MOSUNNY 64 53 67 W7 30.06S WESTFIELD SUNNY 66 53 63 NW10 30.06S NORTH ADAMS PTSUNNY 62 53 72 W7 30.07S PITTSFIELD PTSUNNY 59 51 75 W10 30.09R $$ RIZALL-281400- RHODE ISLAND CITY SKY/WX TMP DP RH WIND PRES REMARKS PROVIDENCE MOSUNNY 66 53 63 NW12 30.05R NEWPORT SUNNY 67 53 61 W12 30.04S BLOCK ISLAND SUNNY 65 53 65 W9 30.08R WESTERLY SUNNY 68 53 58 VRB7 30.07S $$ CTZALL-281400- CONNECTICUT CITY SKY/WX TMP DP RH WIND PRES REMARKS BRADLEY INTL MOSUNNY 66 53 63 NW7 30.08R HARTFORD SUNNY 66 53 63 NW8 30.08S BRIDGEPORT SUNNY 69 52 54 NW9 30.10R GROTON SUNNY 68 52 56 NW10 30.06S NEW HAVEN SUNNY 66 53 63 W6 30.09R CHESTER FAIR 66 52 59 N9G16 30.09S MERIDEN SUNNY 65 53 65 W7 30.09R WILLIMANTIC SUNNY 65 54 67 W9 30.08R OXFORD SUNNY 63 50 63 W5 30.11R $$ MEZ002-015-021-024-NHZ003-005-008-011-012-014-VTZ005-008-281400- NORTHERN NEW ENGLAND CITY SKY/WX TMP DP RH WIND PRES REMARKS PORTLAND ME MOSUNNY 64 55 72 W8 29.97S BANGOR ME PTSUNNY 61 55 81 W6 29.93S CONCORD NH SUNNY 62 55 77 W7 30.02S MANCHESTER NH MOSUNNY 64 51 62 W6 30.01R NASHUA NH SUNNY 64 53 67 NW12 30.03R PORTSMOUTH NH SUNNY 64 53 67 W9G20 29.99R JAFFREY NH SUNNY 61 53 75 W8G17 30.05R KEENE NH MOSUNNY 56 53 90 CALM 30.06R BURLINGTON VT MOSUNNY 62 54 74 SW9 30.02R MT. WASHINGTON FOG 36 36 100 W39G45 N/A VSB 0 WCI 21 $$ NYZ052-076-281400- EASTERN NEW YORK CITY SKY/WX TMP DP RH WIND PRES REMARKS ALBANY MOSUNNY 65 53 65 W8 30.08R NEW YORK CITY SUNNY 68 54 60 NW13 30.11R $$ ANZALL-281400- MARINE OBSERVATIONS STATION/POSITION TIME TEMP WIND PRES VSBY WAVE AIR SEA DIR/SP/G HT/PER (UTC) (F) (DEG/KT/KT) (MB) (MI) (FT/S) BOSTON BUOY 1250 58 59 260/ 10/ 12 1016.2R 1/ 2 BUZZARDS BAY 1200 62 290/ 12/ 14 1017.6R NANTUCKET SOUND 1250 63 1016.7R 2/ 3 MASS BAY-STELLWA 1204 59 60 280/ 14/ 16 1015.2S 1/ 3 ISLE OF SHOALS 1200 56 270/ 11/ 11 1015.2F S OF BLOCK IS 1255 64 N/A 2/ 3 $$ ......................KEY......................... SKY/WX - SKY CONDITION/PRESENT WEATHER TMP - TEMPERATURE IN FAHRENHEIT DWPT - DEWPOINT IN FAHRENHEIT RH - RELATIVE HUMIDITY IN PERCENT WIND - DIRECTION AND SPEED IN MPH PRES - MEAN SEA LEVEL PRESSURE IN INCHES OF HG WCI - WIND CHILL INDEX VSB - VISIBILITY IN MILES HX - HEAT INDEX TC - TEMPERATURE IN CELSIUS VRB - VARIABLE WIND DIRECTION N/A - NOT AVAILABLE

USA.gov is the U.S. government's official web portal to all federal, state and local government web resources and services.